マクノート彗星

C/2011 Q2 ( McNaught )

English version
Home page
Updated on January 20, 2013

---------------------------------------------------------------------

・ プロフィール

発見日 2011年8月26日
発見光度 14.5等
発見者 Robert H. McNaught (Siding Spring)

・ 写真集

・ 軌道要素

Epoch 2012 Feb. 3.0 TT = JDT 2455960.5
T 2012 Jan. 19.79243 TT                                 MPC
q   1.3495365            (2000.0)            P               Q
z  -0.0000159      Peri.   34.63232     +0.67955735     +0.45860330
 +/-0.0000084      Node   287.36890     -0.73159918     +0.48156237
e   1.0000215      Incl.   36.86770     +0.05444674     +0.74684717
From 104 observations 2011 Aug. 26-2012 Apr. 26, mean residual 0".5.

・ 星図

・ 光度変化

        m1 = 8.7 + 5 logΔ + 10.0 log r  [ ,0]  (              〜2012年 1月19日)
        m1 = 7.4 + 5 logΔ + 20.0 log r  [0, ]  (2012年 1月19日〜              )

---------------------------------------------------------------------

軌道要素はM.P.E.C. 2012-H90に掲載されたものです。
星図はステラナビゲータ Ver.8 (アストロアーツ) で作成したものです。
光度グラフはComet for Windowsで作成したものです。

---------------------------------------------------------------------

Copyright(C) Seiichi Yoshida (comet@aerith.net). All rights reserved.